This demonstration page uses our WeatherBlox Daily Observations layout. Learn more.

Left ArrowRight Arrow

39.95238, -75.16362

Hourly Observations for May 5, 2018

Temp ( °F °C ) Dew Point ( °F °C ) Humidity (%) Winds ( mph kmh ) Pressure ( in mb ) Visibility ( mi km ) Precip ( " mm )
12:54 am 00:54 Mostly Cloudy 75 23.9 52 11.1 45 45 WNW 17 28 29.92 1013 10 16 0.00 0.00
1:54 am 01:54 Cloudy 72 22.2 49 9.4 44 44 NW 15 24 29.95 1014 10 16 0.00 0.00
2:54 am 02:54 Mostly Cloudy 70 21.1 49 9.4 47 47 NW 10 17 29.96 1015 10 16 0.00 0.00
3:54 am 03:54 Cloudy 69 20.6 47 8.3 45 45 NW 13 20 29.98 1015 10 16 0.00 0.00
4:54 am 04:54 Cloudy 68 20 44 6.7 42 42 NNW 15 24 30.01 1016 10 16 0.00 0.00
5:54 am 05:54 Cloudy 66 18.9 43 6.1 43 43 NNW 12 19 30.03 1017 10 16 0.00 0.00
6:54 am 06:54 Cloudy 64 17.8 41 5 43 43 N 13 20 30.06 1018 10 16 0.00 0.00
7:54 am 07:54 Cloudy 64 17.8 41 5 43 43 N 13 20 30.08 1019 10 16 0.00 0.00
8:54 am 08:54 Cloudy 66 18.9 41 5 40 40 NNW 16 26 30.10 1019 10 16 0.00 0.00
9:54 am 09:54 Cloudy 67 19.4 42 5.6 41 41 NNE 9 15 30.12 1020 10 16 0.00 0.00
10:54 am 10:54 Cloudy 68 20 42 5.6 39 39 NNW 7 11 30.13 1020 10 16 0.00 0.00
11:54 am 11:54 Cloudy 69 20.6 38 3.3 32 32 NW 5 7 30.13 1020 10 16 0.00 0.00
12:54 pm 12:54 Mostly Cloudy 69 20.6 39 3.9 33 33 SW 7 11 30.12 1020 10 16 0.00 0.00
1:54 pm 13:54 Mostly Cloudy 71 21.7 40 4.4 32 32 SSW 7 11 30.11 1020 10 16 0.00 0.00
2:54 pm 14:54 Cloudy 71 21.7 39 3.9 31 31 SSW 8 13 30.11 1020 10 16 0.00 0.00
3:54 pm 15:54 Cloudy 72 22.2 38 3.3 29 29 SSW 6 9 30.09 1019 10 16 0.00 0.00
4:54 pm 16:54 Cloudy 70 21.1 42 5.6 37 37 SSW 9 15 30.09 1019 10 16 0.00 0.00
5:54 pm 17:54 Cloudy 70 21.1 41 5 35 35 SSW 7 11 30.09 1019 10 16 0.00 0.00
6:54 pm 18:54 Cloudy 69 20.6 42 5.6 38 38 SW 10 17 30.10 1019 10 16 0.00 0.00
7:54 pm 19:54 Cloudy 68 20 43 6.1 40 40 WNW 9 15 30.10 1019 10 16 0.00 0.03
8:54 pm 20:54 Cloudy 66 18.9 41 5 40 40 WSW 8 13 30.11 1020 10 16 0.00 0.03
9:54 pm 21:54 Cloudy 64 17.8 47 8.3 54 54 SSW 6 9 30.11 1020 10 16 0.00 0.00
10:54 pm 22:54 Cloudy 63 17.2 46 7.8 54 54 SSW 9 15 30.13 1020 10 16 0.00 0.00
11:54 pm 23:54 Cloudy 62 16.7 45 7.2 54 54 Calm 30.10 1019 10 16 0.00 0.00

Powered by AerisWeather